Radiation Dose at Monitoring Post of Fukushima Daini Nuclear Power Station
Date,Time,MP-1(microSv/h),MP-2(microSv/h),MP-3(microSv/h),MP-4(microSv/h),MP-5(microSv/h),MP-6(microSv/h),MP-7(microSv/h),Wind Direction,Wind Velocity(m/s),Rain
2020/09/16,00:00,0.174,0.157,0.260,0.245,0.245,0.138,0.083,north-northwest,3.3,No
2020/09/16,00:10,0.177,0.156,0.259,0.246,0.243,0.139,0.082,north-northwest,4.6,No
2020/09/16,00:20,0.176,0.156,0.262,0.244,0.246,0.139,0.084,northwest,4.0,No
2020/09/16,00:30,0.176,0.156,0.258,0.246,0.242,0.138,0.083,northwest,3.1,No
2020/09/16,00:40,0.176,0.156,0.260,0.243,0.246,0.139,0.083,northwest,4.2,No
2020/09/16,00:50,0.174,0.156,0.258,0.246,0.243,0.137,0.082,north-northwest,3.6,No
2020/09/16,01:00,0.178,0.155,0.259,0.245,0.245,0.139,0.083,northwest,3.7,No
2020/09/16,01:10,0.175,0.157,0.260,0.246,0.244,0.138,0.082,northwest,3.8,No
2020/09/16,01:20,0.176,0.156,0.258,0.245,0.243,0.138,0.083,northwest,4.0,No
2020/09/16,01:30,0.176,0.157,0.260,0.245,0.245,0.138,0.082,northwest,2.9,No
2020/09/16,01:40,0.177,0.155,0.258,0.245,0.242,0.138,0.083,north-northwest,2.9,No
2020/09/16,01:50,0.176,0.157,0.261,0.244,0.245,0.139,0.083,north-northwest,3.0,No
2020/09/16,02:00,0.176,0.156,0.258,0.245,0.243,0.137,0.083,northwest,2.2,No
2020/09/16,02:10,0.177,0.157,0.260,0.245,0.245,0.138,0.083,west-northwest,2.9,No
2020/09/16,02:20,0.175,0.156,0.259,0.246,0.243,0.137,0.082,northwest,2.1,No
2020/09/16,02:30,0.175,0.156,0.260,0.243,0.243,0.138,0.083,northwest,2.0,No
2020/09/16,02:40,0.176,0.156,0.258,0.246,0.244,0.138,0.082,west-northwest,1.8,No
2020/09/16,02:50,0.175,0.157,0.260,0.243,0.243,0.138,0.083,west-northwest,1.7,No
2020/09/16,03:00,0.177,0.156,0.259,0.246,0.245,0.139,0.082,north-northwest,1.9,No
2020/09/16,03:10,0.175,0.156,0.259,0.245,0.243,0.137,0.083,north-northwest,2.6,No
2020/09/16,03:20,0.176,0.155,0.259,0.246,0.244,0.138,0.083,north-northwest,1.0,No
2020/09/16,03:30,0.175,0.157,0.261,0.245,0.242,0.137,0.083,north-northwest,1.4,No
2020/09/16,03:40,0.177,0.156,0.259,0.247,0.244,0.138,0.083,northwest,1.4,No
2020/09/16,03:50,0.176,0.156,0.258,0.244,0.243,0.137,0.084,north-northwest,1.6,No
2020/09/16,04:00,0.176,0.156,0.258,0.245,0.245,0.138,0.083,north-northwest,2.3,No
2020/09/16,04:10,0.176,0.157,0.258,0.243,0.242,0.138,0.082,northwest,1.3,No
2020/09/16,04:20,0.176,0.156,0.259,0.246,0.243,0.138,0.082,northwest,2.3,No
2020/09/16,04:30,0.176,0.156,0.259,0.244,0.243,0.138,0.083,northwest,1.9,No
2020/09/16,04:40,0.176,0.156,0.259,0.246,0.245,0.138,0.083,northwest,2.5,No
2020/09/16,04:50,0.176,0.157,0.259,0.244,0.244,0.138,0.082,north-northwest,1.6,No
2020/09/16,05:00,0.175,0.156,0.259,0.245,0.243,0.137,0.083,northwest,1.8,No
2020/09/16,05:10,0.176,0.156,0.259,0.244,0.245,0.138,0.083,northwest,0.7,No
2020/09/16,05:20,0.175,0.156,0.260,0.245,0.243,0.138,0.083,north-northwest,0.9,No
2020/09/16,05:30,0.176,0.157,0.258,0.243,0.244,0.138,0.083,north-northeast,1.1,No
2020/09/16,05:40,0.175,0.156,0.259,0.245,0.243,0.137,0.083,-,CALM,No
2020/09/16,05:50,0.177,0.156,0.259,0.244,0.245,0.139,0.083,-,CALM,No
2020/09/16,06:00,0.176,0.157,0.259,0.246,0.243,0.138,0.082,-,CALM,No
2020/09/16,06:10,0.177,0.156,0.259,0.243,0.245,0.139,0.082,east-northeast,1.0,No
2020/09/16,06:20,0.176,0.155,0.259,0.244,0.241,0.137,0.083,-,CALM,No
2020/09/16,06:30,0.176,0.157,0.258,0.244,0.245,0.138,0.083,-,CALM,No
2020/09/16,06:40,0.176,0.156,0.260,0.246,0.244,0.137,0.083,northwest,3.6,No
2020/09/16,06:50,0.176,0.156,0.258,0.244,0.244,0.138,0.083,north-northwest,3.9,No
2020/09/16,07:00,0.177,0.157,0.260,0.244,0.245,0.138,0.082,north-northwest,3.6,No
2020/09/16,07:10,0.175,0.156,0.259,0.243,0.242,0.138,0.083,north,3.0,No
2020/09/16,07:20,0.176,0.156,0.260,0.244,0.245,0.138,0.084,north-northwest,2.4,No
2020/09/16,07:30,0.176,0.154,0.258,0.245,0.244,0.138,0.083,north-northwest,2.6,No
2020/09/16,07:40,0.175,0.157,0.256,0.242,0.241,0.137,0.082,north-northwest,2.9,No
2020/09/16,07:50,0.177,0.156,0.260,0.243,0.245,0.138,0.082,north,2.2,No
2020/09/16,08:00,0.176,0.155,0.261,0.245,0.244,0.137,0.082,north-northeast,2.1,No
2020/09/16,08:10,0.175,0.155,0.258,0.244,0.242,0.137,0.082,north-northeast,2.2,No
2020/09/16,08:20,0.176,0.156,0.256,0.243,0.242,0.138,0.083,north-northeast,1.9,No
2020/09/16,08:30,0.175,0.155,0.256,0.240,0.245,0.138,0.082,north-northeast,2.3,No
2020/09/16,08:40,0.175,0.155,0.259,0.243,0.245,0.138,0.084,north-northeast,2.3,No
2020/09/16,08:50,0.175,0.157,0.259,0.245,0.242,0.139,0.083,north,2.5,No
2020/09/16,09:00,0.175,0.155,0.258,0.244,0.244,0.138,0.083,north,2.6,No
2020/09/16,09:10,0.174,0.156,0.256,0.242,0.246,0.138,0.082,north,2.5,No
2020/09/16,09:20,0.174,0.156,0.259,0.242,0.242,0.138,0.084,north-northeast,2.6,No
2020/09/16,09:30,0.176,0.157,0.260,0.246,0.241,0.138,0.083,north-northeast,2.3,No
2020/09/16,09:40,0.176,0.155,0.259,0.245,0.241,0.138,0.082,north-northeast,3.6,No
2020/09/16,09:50,0.176,0.154,0.258,0.245,0.240,0.137,0.083,north-northeast,3.1,No
2020/09/16,10:00,0.174,0.156,0.256,0.243,0.241,0.136,0.082,north-northeast,3.1,No
2020/09/16,10:10,0.174,0.156,0.255,0.243,0.246,0.137,0.083,north-northeast,3.7,No
2020/09/16,10:20,0.174,0.156,0.257,0.242,0.245,0.136,0.082,north-northeast,3.1,No
2020/09/16,10:30,0.177,0.155,0.258,0.242,0.243,0.137,0.082,northeast,2.2,No
2020/09/16,10:40,0.176,0.154,0.262,0.245,0.242,0.138,0.082,northeast,2.3,No
2020/09/16,10:50,0.175,0.157,0.260,0.246,0.242,0.138,0.083,northeast,3.1,No
2020/09/16,11:00,0.173,0.155,0.259,0.245,0.241,0.138,0.083,northeast,2.2,No
2020/09/16,11:10,0.175,0.155,0.256,0.247,0.242,0.139,0.082,northeast,2.4,No
2020/09/16,11:20,0.174,0.156,0.259,0.243,0.242,0.139,0.082,northeast,2.5,No
2020/09/16,11:30,0.175,0.155,0.258,0.243,0.244,0.138,0.083,northeast,2.3,No
2020/09/16,11:40,0.174,0.156,0.257,0.243,0.242,0.138,0.082,east-northeast,2.9,No
2020/09/16,11:50,0.174,0.156,0.258,0.243,0.243,0.138,0.082,northeast,3.9,No
2020/09/16,12:00,0.174,0.155,0.257,0.245,0.243,0.138,0.082,northeast,2.4,No
2020/09/16,12:10,0.174,0.156,0.259,0.244,0.242,0.137,0.083,north-northeast,2.6,No
2020/09/16,12:20,0.175,0.155,0.258,0.244,0.242,0.138,0.082,northeast,3.5,No
2020/09/16,12:30,0.175,0.155,0.257,0.243,0.244,0.138,0.082,northeast,3.5,No
2020/09/16,12:40,0.174,0.155,0.258,0.245,0.244,0.137,0.082,north-northeast,1.8,No
2020/09/16,12:50,0.175,0.155,0.258,0.244,0.243,0.138,0.082,northeast,3.0,No
2020/09/16,13:00,0.176,0.155,0.258,0.245,0.244,0.138,0.083,northeast,2.0,No
2020/09/16,13:10,0.175,0.156,0.259,0.246,0.244,0.138,0.082,east-northeast,3.5,No
2020/09/16,13:20,0.176,0.155,0.260,0.246,0.245,0.139,0.082,northeast,1.9,No
2020/09/16,13:30,0.176,0.155,0.259,0.246,0.243,0.138,0.082,northeast,2.9,No
2020/09/16,13:40,0.176,0.155,0.260,0.245,0.242,0.139,0.082,northeast,2.6,No
2020/09/16,13:50,0.175,0.156,0.259,0.245,0.243,0.139,0.083,northeast,2.4,No
2020/09/16,14:00,0.177,0.158,0.261,0.244,0.244,0.139,0.084,north-northeast,2.7,No
2020/09/16,14:10,0.177,0.157,0.262,0.244,0.243,0.138,0.083,northeast,2.7,No
2020/09/16,14:20,0.176,0.157,0.261,0.247,0.242,0.137,0.083,northeast,2.2,No
2020/09/16,14:30,0.176,0.156,0.260,0.248,0.243,0.138,0.082,northeast,2.2,No
2020/09/16,14:40,0.175,0.155,0.258,0.245,0.242,0.139,0.082,northeast,2.4,No
2020/09/16,14:50,0.175,0.156,0.258,0.244,0.245,0.139,0.083,north-northeast,2.1,No
2020/09/16,15:00,0.176,0.158,0.263,0.245,0.246,0.138,0.083,east-northeast,2.0,No
2020/09/16,15:10,0.178,0.157,0.261,0.247,0.245,0.138,0.082,northeast,1.8,No
2020/09/16,15:20,0.177,0.156,0.260,0.248,0.243,0.138,0.082,northeast,2.1,No
2020/09/16,15:30,0.175,0.155,0.260,0.247,0.241,0.137,0.082,east,2.1,No
2020/09/16,15:40,0.175,0.158,0.263,0.246,0.246,0.139,0.083,northeast,1.8,Yes
2020/09/16,15:50,0.178,0.156,0.261,0.246,0.247,0.138,0.083,north,1.1,No
2020/09/16,16:00,0.176,0.156,0.259,0.248,0.244,0.138,0.083,north-northeast,1.2,No
2020/09/16,16:10,0.176,0.157,0.262,0.246,0.243,0.139,0.084,north,0.8,No
2020/09/16,16:20,0.177,0.157,0.262,0.245,0.246,0.139,0.082,northeast,1.2,No
2020/09/16,16:30,0.178,0.156,0.260,0.247,0.245,0.138,0.082,northeast,0.9,No
2020/09/16,16:40,0.176,0.157,0.260,0.246,0.242,0.138,0.083,north,0.8,No
2020/09/16,16:50,0.176,0.157,0.261,0.246,0.243,0.140,0.083,north,1.3,No
2020/09/16,17:00,0.179,0.156,0.260,0.246,0.247,0.139,0.083,north-northeast,0.9,No
2020/09/16,17:10,0.176,0.157,0.262,0.246,0.245,0.138,0.083,north-northeast,1.0,Yes
2020/09/16,17:20,0.176,0.157,0.263,0.246,0.242,0.139,0.083,northeast,1.3,Yes
2020/09/16,17:30,0.178,0.156,0.260,0.248,0.246,0.138,0.083,east-northeast,1.2,No
2020/09/16,17:40,0.175,0.157,0.262,0.248,0.245,0.138,0.083,east-northeast,0.9,No
2020/09/16,17:50,0.176,0.157,0.261,0.245,0.243,0.139,0.083,east-northeast,1.6,No
2020/09/16,18:00,0.177,0.156,0.260,0.248,0.246,0.138,0.082,east-northeast,1.5,No
2020/09/16,18:10,0.177,0.157,0.261,0.248,0.245,0.138,0.083,east-northeast,0.9,No
2020/09/16,18:20,0.175,0.156,0.261,0.245,0.243,0.139,0.084,northeast,0.9,No
2020/09/16,18:30,0.177,0.155,0.259,0.247,0.245,0.138,0.083,-,CALM,No
2020/09/16,18:40,0.176,0.157,0.262,0.248,0.244,0.137,0.083,-,CALM,No
2020/09/16,18:50,0.175,0.156,0.262,0.244,0.242,0.138,0.083,-,CALM,No
2020/09/16,19:00,0.177,0.156,0.259,0.249,0.246,0.138,0.082,north-northeast,1.2,No
2020/09/16,19:10,0.176,0.156,0.261,0.246,0.244,0.138,0.083,-,CALM,No
2020/09/16,19:20,0.175,0.157,0.261,0.246,0.243,0.138,0.084,northwest,0.7,No
2020/09/16,19:30,0.178,0.157,0.259,0.249,0.245,0.139,0.082,northwest,1.1,No
2020/09/16,19:40,0.176,0.158,0.263,0.247,0.245,0.137,0.083,northwest,0.8,No
2020/09/16,19:50,0.176,0.155,0.260,0.245,0.242,0.138,0.083,north-northeast,0.6,No
2020/09/16,20:00,0.176,0.157,0.260,0.248,0.245,0.140,0.083,north-northwest,0.9,No
2020/09/16,20:10,0.177,0.158,0.264,0.246,0.245,0.138,0.083,-,CALM,No
2020/09/16,20:20,0.175,0.155,0.261,0.245,0.244,0.138,0.084,north-northwest,0.6,No
2020/09/16,20:30,0.177,0.158,0.261,0.248,0.245,0.140,0.083,north,0.9,No
2020/09/16,20:40,0.177,0.157,0.263,0.246,0.245,0.139,0.083,-,CALM,No
2020/09/16,20:50,0.176,0.157,0.260,0.246,0.243,0.139,0.084,-,CALM,No
2020/09/16,21:00,0.177,0.158,0.261,0.249,0.245,0.139,0.082,-,CALM,No
2020/09/16,21:10,0.176,0.156,0.262,0.246,0.244,0.139,0.083,west-northwest,0.6,No
2020/09/16,21:20,0.175,0.158,0.261,0.247,0.243,0.139,0.084,-,CALM,No
2020/09/16,21:30,0.178,0.157,0.261,0.247,0.246,0.140,0.083,north-northwest,0.6,No
2020/09/16,21:40,0.177,0.156,0.261,0.246,0.246,0.139,0.083,southwest,0.6,No
2020/09/16,21:50,0.177,0.157,0.262,0.249,0.245,0.138,0.083,-,CALM,No
2020/09/16,22:00,0.178,0.157,0.263,0.247,0.247,0.139,0.083,northeast,1.6,No
2020/09/16,22:10,0.177,0.156,0.260,0.247,0.245,0.137,0.084,north-northeast,1.8,No
2020/09/16,22:20,0.175,0.158,0.264,0.248,0.243,0.139,0.083,-,CALM,No
2020/09/16,22:30,0.177,0.157,0.262,0.246,0.246,0.139,0.083,-,CALM,No
2020/09/16,22:40,0.177,0.157,0.259,0.247,0.245,0.139,0.083,-,CALM,No
2020/09/16,22:50,0.176,0.158,0.264,0.248,0.245,0.140,0.084,northwest,0.6,No
2020/09/16,23:00,0.178,0.157,0.262,0.245,0.247,0.139,0.084,north,1.1,No
2020/09/16,23:10,0.176,0.158,0.261,0.248,0.244,0.139,0.083,north-northwest,1.3,No
2020/09/16,23:20,0.176,0.156,0.262,0.246,0.244,0.139,0.083,north-northwest,1.2,No
2020/09/16,23:30,0.178,0.158,0.260,0.247,0.246,0.139,0.083,north,1.3,No
2020/09/16,23:40,0.176,0.158,0.263,0.248,0.242,0.138,0.084,-,CALM,No
2020/09/16,23:50,0.178,0.157,0.261,0.246,0.246,0.140,0.083,northwest,1.0,No
